QPF
0.00 0.01 0.01 0.00 0.00 0.00 0.01 0.01 0.01 0.00 0.00 0.01 0.01 0.01 0.01 0.01 0.02 0.04 0.06 0.08 0.08 0.09 0.12 0.14 0.14 0.11 0.08 0.06 0.06 0.05 0.04 0.04 0.04 0.04 0.03 0.02 0.03 0.03 0.04 0.06 0.08 0.07 0.06 0.06
0.00 0.01 0.01 0.00 0.00 0.00 0.00 0.00 0.00 0.00 0.00 0.00 0.01 0.01 0.01 0.01 0.01 0.01 0.03 0.05 0.07 0.08 0.09 0.12 0.14 0.14 0.11 0.08 0.06 0.06 0.05 0.04 0.03 0.03 0.03 0.02 0.02 0.02 0.03 0.03 0.04 0.06 0.06 0.06
0.01 0.00 0.01 0.01 0.01 0.00 0.00 0.00 0.00 0.00 0.00 0.00 0.00 0.01 0.01 0.01 0.01 0.01 0.01 0.02 0.04 0.05 0.07 0.09 0.11 0.13 0.11 0.09 0.07 0.06 0.06 0.06 0.05 0.03 0.02 0.02 0.02 0.02 0.02 0.03 0.05 0.05 0.06 0.07
0.01 0.01 0.01 0.02 0.01 0.00 0.00 0.00 0.00 0.00 0.00 0.00 0.00 0.00 0.00 0.01 0.01 0.01 0.01 0.01 0.01 0.03 0.04 0.06 0.07 0.08 0.07 0.07 0.06 0.05 0.05 0.05 0.05 0.05 0.04 0.03 0.02 0.02 0.02 0.03 0.04 0.06 0.07 0.08
0.02 0.01 0.00 0.00 0.00 0.00 0.00 0.00 0.00 0.00 0.00 0.00 0.00 0.00 0.00 0.00 0.00 0.00 0.00 0.01 0.01 0.01 0.03 0.04 0.05 0.05 0.05 0.03 0.02 0.02 0.02 0.03 0.03 0.04 0.04 0.04 0.04 0.03 0.03 0.04 0.04 0.04 0.05 0.06
0.02 0.01 0.00 0.00 0.00 0.00 0.00 0.00 0.00 0.00 0.00 0.00 0.00 0.00 0.00 0.00 0.00 0.00 0.00 0.00 0.00 0.01 0.01 0.03 0.04 0.04 0.04 0.03 0.02 0.01 0.01 0.01 0.02 0.03 0.04 0.05 0.05 0.05 0.05 0.05 0.04 0.04 0.04 0.04
0.02 0.01 0.00 0.00 0.00 0.00 0.00 0.00 0.00 0.00 0.00 0.00 0.00 0.00 0.00 0.00 0.00 0.00 0.00 0.00 0.00 0.01 0.01 0.02 0.03 0.03 0.04 0.03 0.04 0.03 0.02 0.02 0.02 0.02 0.04 0.05 0.06 0.07 0.07 0.06 0.05 0.05 0.04 0.04
0.01 0.01 0.00 0.00 0.00 0.00 0.00 0.00 0.00 0.00 0.00 0.00 0.00 0.00 0.00 0.00 0.00 0.00 0.00 0.00 0.00 0.01 0.01 0.02 0.03 0.03 0.03 0.04 0.05 0.05 0.04 0.03 0.02 0.02 0.03 0.05 0.06 0.06 0.06 0.07 0.07 0.06 0.05 0.05
0.01 0.01 0.00 0.00 0.00 0.00 0.00 0.00 0.00 0.00 0.00 0.00 0.00 0.00 0.00 0.00 0.00 0.00 0.00 0.00 0.00 0.01 0.01 0.02 0.03 0.04 0.05 0.05 0.05 0.05 0.04 0.04 0.03 0.03 0.04 0.04 0.03 0.03 0.04 0.04 0.05 0.05 0.05 0.05
0.01 0.01 0.00 0.00 0.00 0.00 0.00 0.00 0.00 0.00 0.00 0.00 0.00 0.00 0.00 0.00 0.00 0.00 0.00 0.00 0.00 0.01 0.01 0.02 0.03 0.03 0.05 0.06 0.06 0.06 0.05 0.05 0.05 0.05 0.05 0.04 0.03 0.03 0.02 0.02 0.03 0.04 0.04 0.04
0.01 0.00 0.00 0.00 0.00 0.00 0.00 0.00 0.00 0.00 0.00 0.00 0.00 0.00 0.00 0.00 0.00 0.00 0.00 0.00 0.01 0.01 0.01 0.02 0.02 0.03 0.05 0.06 0.05 0.05 0.05 0.05 0.05 0.05 0.05 0.05 0.04 0.04 0.03 0.02 0.03 0.04 0.04 0.04
0.01 0.00 0.00 0.00 0.00 0.00 0.00 0.00 0.00 0.00 0.00 0.00 0.00 0.00 0.00 0.00 0.00 0.00 0.00 0.00 0.01 0.01 0.01 0.02 0.02 0.03 0.04 0.05 0.05 0.05 0.05 0.06 0.06 0.06 0.06 0.06 0.06 0.06 0.05 0.04 0.04 0.04 0.04 0.05
0.01 0.00 0.00 0.00 0.00 0.00 0.00 0.00 0.00 0.00 0.00 0.00 0.00 0.00 0.00 0.00 0.00 0.00 0.00 0.01 0.01 0.01 0.01 0.02 0.02 0.02 0.04 0.05 0.05 0.05 0.06 0.07 0.06 0.06 0.06 0.06 0.06 0.06 0.06 0.06 0.05 0.05 0.05 0.06
0.02 0.01 0.01 0.01 0.00 0.00 0.00 0.00 0.00 0.00 0.00 0.00 0.00 0.00 0.00 0.00 0.00 0.01 0.01 0.01 0.01 0.01 0.01 0.01 0.01 0.02 0.03 0.05 0.05 0.05 0.06 0.07 0.07 0.06 0.06 0.06 0.06 0.05 0.05 0.05 0.05 0.04 0.05 0.05
0.01 0.01 0.01 0.01 0.01 0.01 0.01 0.01 0.01 0.01 0.01 0.01 0.00 0.00 0.00 0.00 0.01 0.01 0.01 0.01 0.01 0.01 0.01 0.01 0.01 0.01 0.02 0.03 0.04 0.05 0.05 0.06 0.07 0.07 0.06 0.06 0.05 0.05 0.04 0.04 0.03 0.04 0.04 0.05
0.00 0.00 0.00 0.00 0.00 0.00 0.01 0.01 0.00 0.00 0.01 0.01 0.00 0.00 0.00 0.00 0.01 0.00 0.00 0.01 0.01 0.01 0.01 0.01 0.01 0.01 0.02 0.02 0.02 0.03 0.05 0.06 0.07 0.07 0.06 0.05 0.05 0.05 0.04 0.04 0.04 0.04 0.04 0.05
0.00 0.00 0.00 0.00 0.00 0.00 0.01 0.01 0.01 0.01 0.01 0.01 0.00 0.00 0.00 0.00 0.00 0.00 0.00 0.00 0.01 0.01 0.01 0.01 0.01 0.01 0.01 0.01 0.01 0.02 0.03 0.04 0.05 0.05 0.06 0.05 0.05 0.04 0.04 0.04 0.04 0.04 0.05 0.05
0.00 0.00 0.00 0.00 0.00 0.01 0.01 0.01 0.01 0.01 0.01 0.01 0.00 0.00 0.00 0.00 0.00 0.00 0.00 0.00 0.00 0.00 0.00 0.00 0.00 0.00 0.00 0.01 0.01 0.01 0.02 0.03 0.03 0.04 0.04 0.05 0.04 0.04 0.03 0.03 0.04 0.04 0.04 0.05
0.00 0.00 0.00 0.00 0.00 0.01 0.01 0.01 0.01 0.01 0.01 0.01 0.00 0.00 0.00 0.00 0.00 0.00 0.00 0.00 0.00 0.00 0.00 0.00 0.01 0.01 0.01 0.01 0.00 0.01 0.01 0.02 0.02 0.03 0.03 0.04 0.04 0.03 0.03 0.03 0.04 0.04 0.04 0.04
0.00 0.00 0.00 0.00 0.01 0.01 0.01 0.01 0.01 0.01 0.01 0.01 0.01 0.01 0.00 0.00 0.00 0.01 0.00 0.00 0.01 0.01 0.01 0.01 0.01 0.01 0.01 0.01 0.01 0.01 0.01 0.01 0.02 0.03 0.03 0.03 0.04 0.03 0.03 0.03 0.03 0.03 0.03 0.03
0.00 0.00 0.00 0.01 0.01 0.01 0.01 0.01 0.01 0.01 0.01 0.01 0.01 0.01 0.01 0.01 0.01 0.01 0.01 0.00 0.00 0.01 0.01 0.01 0.01 0.01 0.01 0.01 0.01 0.01 0.01 0.01 0.02 0.03 0.03 0.04 0.04 0.04 0.03 0.03 0.03 0.03 0.02 0.02
0.00 0.01 0.01 0.01 0.01 0.01 0.01 0.01 0.01 0.01 0.01 0.01 0.01 0.01 0.01 0.01 0.01 0.01 0.01 0.01 0.01 0.01 0.01 0.01 0.01 0.01 0.01 0.01 0.01 0.01 0.01 0.02 0.02 0.03 0.04 0.04 0.04 0.04 0.04 0.03 0.03 0.03 0.02 0.02
0.01 0.01 0.01 0.01 0.01 0.01 0.01 0.01 0.01 0.01 0.00 0.00 0.00 0.00 0.01 0.01 0.01 0.01 0.01 0.01 0.01 0.01 0.01 0.01 0.01 0.01 0.01 0.01 0.01 0.01 0.02 0.02 0.02 0.03 0.03 0.03 0.03 0.04 0.03 0.03 0.03 0.02 0.02 0.02
0.01 0.01 0.01 0.01 0.01 0.01 0.01 0.01 0.01 0.00 0.00 0.00 0.00 0.00 0.00 0.00 0.00 0.01 0.01 0.01 0.01 0.02 0.01 0.02 0.02 0.02 0.02 0.01 0.02 0.02 0.02 0.02 0.02 0.02 0.02 0.03 0.03 0.03 0.03 0.03 0.02 0.02 0.02 0.02
0.01 0.01 0.01 0.01 0.01 0.01 0.01 0.00 0.00 0.00 0.00 0.00 0.00 0.00 0.00 0.00 0.00 0.00 0.00 0.01 0.01 0.01 0.01 0.02 0.02 0.02 0.02 0.02 0.02 0.02 0.02 0.02 0.02 0.02 0.02 0.02 0.02 0.02 0.02 0.02 0.02 0.02 0.02 0.02
0.01 0.01 0.01 0.01 0.01 0.01 0.01 0.00 0.00 0.00 0.00 0.00 0.00 0.00 0.00 0.00 0.00 0.00 0.00 0.00 0.01 0.01 0.01 0.01 0.02 0.02 0.02 0.02 0.03 0.03 0.03 0.03 0.03 0.03 0.03 0.02 0.02 0.02 0.02 0.01 0.01 0.02 0.02 0.02
0.01 0.01 0.01 0.01 0.01 0.01 0.01 0.01 0.01 0.01 0.01 0.01 0.01 0.01 0.01 0.01 0.00 0.00 0.00 0.00 0.01 0.01 0.01 0.01 0.01 0.02 0.02 0.02 0.03 0.03 0.03 0.03 0.03 0.02 0.02 0.02 0.02 0.01 0.01 0.01 0.01 0.02 0.02 0.02
MSLP
1016.06 1015.73 1015.50 1015.35 1015.26 1015.21 1015.16 1015.10 1015.05 1015.02 1015.05 1015.18 1015.48 1015.97 1016.65 1017.52 1018.53 1019.65 1020.79 1021.91 1022.96 1023.90 1024.73 1025.45 1026.11 1026.72 1027.33 1027.96 1028.62 1029.31 1030.00 1030.67 1031.28 1031.80 1032.21 1032.51 1032.69 1032.77 1032.76 1032.68 1032.55 1032.37 1032.14 1031.85
1015.31 1014.90 1014.60 1014.42 1014.33 1014.32 1014.35 1014.41 1014.47 1014.55 1014.66 1014.85 1015.14 1015.57 1016.16 1016.90 1017.77 1018.75 1019.78 1020.82 1021.83 1022.77 1023.64 1024.44 1025.19 1025.90 1026.62 1027.34 1028.09 1028.85 1029.60 1030.33 1030.98 1031.55 1032.00 1032.32 1032.52 1032.61 1032.60 1032.52 1032.37 1032.18 1031.94 1031.66
1014.70 1014.22 1013.86 1013.63 1013.52 1013.51 1013.57 1013.67 1013.78 1013.91 1014.06 1014.25 1014.51 1014.87 1015.36 1015.98 1016.73 1017.60 1018.54 1019.53 1020.53 1021.51 1022.45 1023.35 1024.22 1025.06 1025.88 1026.72 1027.55 1028.38 1029.20 1029.96 1030.66 1031.25 1031.73 1032.07 1032.28 1032.37 1032.37 1032.28 1032.12 1031.93 1031.69 1031.42
1014.32 1013.78 1013.36 1013.07 1012.91 1012.87 1012.90 1012.99 1013.10 1013.22 1013.35 1013.50 1013.70 1013.98 1014.37 1014.89 1015.54 1016.31 1017.20 1018.17 1019.19 1020.23 1021.26 1022.28 1023.27 1024.23 1025.18 1026.12 1027.04 1027.94 1028.80 1029.61 1030.33 1030.94 1031.44 1031.79 1032.01 1032.11 1032.10 1032.01 1031.86 1031.66 1031.42 1031.16
1014.18 1013.61 1013.13 1012.78 1012.56 1012.46 1012.44 1012.48 1012.55 1012.62 1012.70 1012.79 1012.91 1013.11 1013.40 1013.82 1014.39 1015.10 1015.95 1016.91 1017.96 1019.06 1020.18 1021.31 1022.42 1023.51 1024.56 1025.59 1026.59 1027.55 1028.46 1029.29 1030.03 1030.67 1031.17 1031.53 1031.76 1031.87 1031.86 1031.78 1031.62 1031.42 1031.18 1030.93
1014.24 1013.64 1013.13 1012.73 1012.46 1012.30 1012.23 1012.21 1012.22 1012.23 1012.24 1012.27 1012.32 1012.43 1012.65 1012.99 1013.49 1014.15 1014.97 1015.93 1017.00 1018.15 1019.34 1020.55 1021.76 1022.94 1024.08 1025.19 1026.24 1027.24 1028.18 1029.03 1029.79 1030.43 1030.94 1031.32 1031.56 1031.67 1031.68 1031.60 1031.44 1031.24 1031.01 1030.75
1014.40 1013.79 1013.27 1012.85 1012.55 1012.35 1012.24 1012.17 1012.14 1012.10 1012.07 1012.04 1012.04 1012.10 1012.26 1012.54 1012.99 1013.60 1014.39 1015.34 1016.41 1017.59 1018.82 1020.08 1021.33 1022.57 1023.76 1024.91 1026.00 1027.02 1027.97 1028.83 1029.59 1030.24 1030.76 1031.14 1031.40 1031.53 1031.55 1031.47 1031.33 1031.14 1030.91 1030.65
1014.54 1013.95 1013.44 1013.03 1012.73 1012.53 1012.41 1012.34 1012.29 1012.24 1012.19 1012.14 1012.12 1012.15 1012.27 1012.53 1012.93 1013.51 1014.26 1015.18 1016.23 1017.39 1018.62 1019.89 1021.15 1022.39 1023.60 1024.75 1025.84 1026.86 1027.80 1028.66 1029.41 1030.05 1030.58 1030.97 1031.24 1031.39 1031.43 1031.38 1031.25 1031.07 1030.84 1030.59
1014.56 1014.01 1013.53 1013.17 1012.91 1012.74 1012.66 1012.61 1012.59 1012.57 1012.54 1012.51 1012.50 1012.53 1012.65 1012.89 1013.27 1013.81 1014.52 1015.39 1016.40 1017.51 1018.70 1019.92 1021.15 1022.36 1023.54 1024.66 1025.72 1026.72 1027.63 1028.46 1029.20 1029.84 1030.36 1030.76 1031.04 1031.21 1031.28 1031.25 1031.15 1030.99 1030.78 1030.54
1014.41 1013.90 1013.49 1013.19 1013.01 1012.92 1012.89 1012.91 1012.95 1012.99 1013.01 1013.03 1013.06 1013.12 1013.26 1013.49 1013.86 1014.36 1015.03 1015.83 1016.77 1017.81 1018.93 1020.08 1021.24 1022.39 1023.50 1024.57 1025.58 1026.53 1027.41 1028.21 1028.92 1029.54 1030.05 1030.46 1030.75 1030.95 1031.04 1031.05 1030.98 1030.85 1030.67 1030.45
1014.06 1013.62 1013.30 1013.09 1013.00 1013.00 1013.06 1013.17 1013.29 1013.40 1013.49 1013.57 1013.65 1013.76 1013.91 1014.16 1014.51 1014.98 1015.59 1016.33 1017.19 1018.14 1019.16 1020.22 1021.29 1022.36 1023.40 1024.41 1025.36 1026.26 1027.09 1027.85 1028.53 1029.13 1029.63 1030.04 1030.34 1030.55 1030.68 1030.72 1030.70 1030.61 1030.47 1030.29
1013.58 1013.22 1012.99 1012.89 1012.89 1012.99 1013.15 1013.34 1013.54 1013.72 1013.88 1014.02 1014.15 1014.29 1014.47 1014.71 1015.04 1015.48 1016.03 1016.70 1017.47 1018.33 1019.26 1020.22 1021.21 1022.20 1023.17 1024.10 1025.00 1025.85 1026.63 1027.36 1028.01 1028.59 1029.08 1029.49 1029.80 1030.04 1030.19 1030.27 1030.29 1030.25 1030.16 1030.03
1013.06 1012.80 1012.67 1012.66 1012.77 1012.95 1013.19 1013.45 1013.70 1013.94 1014.14 1014.31 1014.47 1014.63 1014.81 1015.05 1015.35 1015.75 1016.24 1016.84 1017.53 1018.30 1019.14 1020.02 1020.93 1021.85 1022.75 1023.64 1024.49 1025.30 1026.06 1026.76 1027.39 1027.95 1028.44 1028.84 1029.17 1029.42 1029.60 1029.72 1029.78 1029.79 1029.75 1029.67
1012.62 1012.46 1012.43 1012.52 1012.70 1012.96 1013.25 1013.54 1013.83 1014.08 1014.29 1014.47 1014.62 1014.77 1014.94 1015.15 1015.41 1015.76 1016.19 1016.72 1017.33 1018.03 1018.79 1019.60 1020.45 1021.31 1022.18 1023.03 1023.85 1024.64 1025.39 1026.07 1026.70 1027.26 1027.74 1028.15 1028.49 1028.76 1028.97 1029.12 1029.22 1029.27 1029.27 1029.24
1012.37 1012.30 1012.36 1012.53 1012.78 1013.07 1013.38 1013.68 1013.95 1014.19 1014.38 1014.53 1014.65 1014.76 1014.88 1015.04 1015.26 1015.55 1015.92 1016.37 1016.92 1017.55 1018.25 1019.00 1019.80 1020.63 1021.47 1022.30 1023.12 1023.90 1024.65 1025.34 1025.97 1026.54 1027.03 1027.45 1027.81 1028.10 1028.33 1028.50 1028.63 1028.72 1028.76 1028.76
1012.35 1012.38 1012.52 1012.74 1013.03 1013.33 1013.63 1013.91 1014.14 1014.32 1014.45 1014.54 1014.60 1014.66 1014.72 1014.82 1014.98 1015.20 1015.50 1015.89 1016.38 1016.94 1017.59 1018.30 1019.06 1019.86 1020.68 1021.51 1022.33 1023.13 1023.88 1024.59 1025.24 1025.82 1026.34 1026.78 1027.15 1027.46 1027.71 1027.91 1028.06 1028.17 1028.23 1028.26
1012.58 1012.69 1012.89 1013.15 1013.44 1013.73 1014.00 1014.22 1014.38 1014.49 1014.55 1014.56 1014.55 1014.54 1014.53 1014.57 1014.65 1014.81 1015.05 1015.37 1015.79 1016.30 1016.89 1017.56 1018.29 1019.06 1019.87 1020.70 1021.53 1022.33 1023.11 1023.84 1024.51 1025.12 1025.66 1026.12 1026.51 1026.84 1027.11 1027.33 1027.50 1027.62 1027.70 1027.74
1013.00 1013.18 1013.42 1013.69 1013.97 1014.22 1014.43 1014.58 1014.66 1014.69 1014.67 1014.60 1014.52 1014.43 1014.36 1014.33 1014.35 1014.45 1014.62 1014.88 1015.24 1015.69 1016.23 1016.85 1017.54 1018.28 1019.07 1019.89 1020.72 1021.53 1022.32 1023.07 1023.77 1024.40 1024.97 1025.46 1025.88 1026.23 1026.52 1026.76 1026.94 1027.07 1027.15 1027.19
1013.53 1013.75 1014.01 1014.27 1014.51 1014.71 1014.85 1014.92 1014.92 1014.87 1014.76 1014.63 1014.48 1014.33 1014.21 1014.12 1014.10 1014.14 1014.26 1014.46 1014.76 1015.15 1015.63 1016.19 1016.83 1017.54 1018.30 1019.10 1019.91 1020.72 1021.51 1022.27 1022.99 1023.64 1024.23 1024.75 1025.20 1025.58 1025.89 1026.14 1026.33 1026.47 1026.56 1026.59
1014.08 1014.31 1014.56 1014.79 1014.97 1015.10 1015.16 1015.15 1015.08 1014.95 1014.78 1014.59 1014.40 1014.21 1014.05 1013.93 1013.87 1013.87 1013.94 1014.10 1014.34 1014.67 1015.09 1015.59 1016.18 1016.83 1017.54 1018.30 1019.08 1019.88 1020.66 1021.42 1022.15 1022.82 1023.42 1023.97 1024.44 1024.85 1025.18 1025.45 1025.66 1025.80 1025.89 1025.93
1014.53 1014.76 1014.98 1015.15 1015.27 1015.31 1015.29 1015.21 1015.07 1014.88 1014.67 1014.44 1014.22 1014.02 1013.84 1013.71 1013.62 1013.60 1013.64 1013.76 1013.95 1014.23 1014.59 1015.03 1015.55 1016.15 1016.80 1017.51 1018.25 1019.01 1019.77 1020.52 1021.23 1021.91 1022.53 1023.09 1023.59 1024.02 1024.37 1024.67 1024.89 1025.05 1025.15 1025.19
1014.83 1015.03 1015.19 1015.29 1015.33 1015.30 1015.20 1015.05 1014.85 1014.63 1014.39 1014.15 1013.92 1013.72 1013.55 1013.42 1013.34 1013.31 1013.33 1013.42 1013.58 1013.81 1014.11 1014.49 1014.95 1015.48 1016.07 1016.72 1017.41 1018.12 1018.85 1019.57 1020.27 1020.94 1021.57 1022.14 1022.65 1023.10 1023.48 1023.79 1024.04 1024.22 1024.33 1024.38
1014.93 1015.08 1015.17 1015.20 1015.15 1015.05 1014.88 1014.68 1014.45 1014.20 1013.95 1013.72 1013.51 1013.33 1013.18 1013.07 1013.00 1012.97 1012.99 1013.06 1013.19 1013.38 1013.64 1013.97 1014.36 1014.83 1015.36 1015.95 1016.58 1017.25 1017.93 1018.62 1019.30 1019.95 1020.57 1021.14 1021.66 1022.12 1022.52 1022.85 1023.12 1023.32 1023.45 1023.52
1014.80 1014.89 1014.91 1014.86 1014.75 1014.58 1014.36 1014.12 1013.87 1013.62 1013.39 1013.18 1013.00 1012.86 1012.74 1012.66 1012.62 1012.60 1012.62 1012.69 1012.80 1012.96 1013.18 1013.46 1013.81 1014.22 1014.70 1015.23 1015.81 1016.43 1017.07 1017.71 1018.36 1018.99 1019.59 1020.15 1020.67 1021.13 1021.54 1021.88 1022.16 1022.38 1022.54 1022.63
1014.46 1014.48 1014.43 1014.31 1014.14 1013.93 1013.69 1013.43 1013.19 1012.96 1012.76 1012.59 1012.46 1012.36 1012.29 1012.24 1012.22 1012.23 1012.26 1012.32 1012.42 1012.56 1012.75 1012.99 1013.30 1013.66 1014.09 1014.58 1015.11 1015.68 1016.28 1016.89 1017.50 1018.09 1018.67 1019.21 1019.71 1020.17 1020.57 1020.92 1021.21 1021.45 1021.62 1021.74
1013.90 1013.86 1013.75 1013.59 1013.38 1013.14 1012.90 1012.66 1012.45 1012.26 1012.11 1012.00 1011.92 1011.87 1011.85 1011.84 1011.85 1011.88 1011.92 1011.98 1012.06 1012.18 1012.35 1012.56 1012.84 1013.17 1013.56 1014.00 1014.49 1015.02 1015.58 1016.15 1016.72 1017.29 1017.83 1018.34 1018.82 1019.26 1019.65 1019.99 1020.28 1020.53 1020.71 1020.85
1013.15 1013.05 1012.90 1012.71 1012.49 1012.26 1012.05 1011.86 1011.70 1011.58 1011.49 1011.44 1011.43 1011.43 1011.45 1011.48 1011.52 1011.55 1011.59 1011.65 1011.72 1011.83 1011.97 1012.16 1012.41 1012.71 1013.07 1013.48 1013.94 1014.44 1014.96 1015.50 1016.03 1016.56 1017.07 1017.54 1017.99 1018.40 1018.77 1019.10 1019.38 1019.62 1019.81 1019.96
Thickness
5480 5481 5481 5484 5484 5480 5484 5497 5505 5514 5509 5511 5502 5494 5492 5490 5488 5487 5486 5485 5484 5484 5485 5484 5483 5483 5483 5482 5481 5481 5481 5481 5481 5480 5480 5480 5480 5481 5481 5483 5484 5485 5487 5491
5471 5473 5473 5476 5482 5481 5481 5486 5492 5494 5498 5496 5489 5485 5484 5483 5480 5480 5479 5476 5475 5474 5475 5475 5474 5473 5472 5472 5471 5470 5471 5470 5470 5469 5469 5470 5470 5471 5472 5473 5475 5477 5479 5482
5481 5467 5469 5488 5490 5483 5482 5481 5486 5494 5497 5486 5481 5479 5478 5476 5473 5471 5470 5469 5467 5466 5465 5464 5463 5462 5461 5461 5460 5460 5461 5459 5459 5459 5459 5459 5460 5461 5463 5464 5465 5467 5470 5472
5466 5466 5479 5502 5479 5480 5480 5479 5476 5479 5481 5478 5475 5472 5470 5468 5465 5463 5461 5459 5458 5456 5455 5454 5452 5451 5451 5451 5451 5451 5451 5450 5450 5449 5449 5449 5450 5452 5453 5454 5455 5457 5459 5462
5457 5470 5489 5491 5475 5469 5471 5476 5474 5471 5471 5469 5463 5464 5470 5461 5455 5454 5452 5450 5448 5445 5444 5443 5441 5440 5440 5441 5441 5442 5442 5441 5440 5440 5439 5440 5441 5442 5443 5444 5444 5447 5449 5451
5449 5465 5482 5494 5468 5460 5465 5478 5473 5465 5464 5460 5455 5467 5472 5455 5447 5444 5441 5439 5437 5436 5434 5433 5433 5431 5431 5432 5432 5433 5432 5432 5431 5431 5431 5432 5433 5434 5434 5434 5435 5437 5439 5441
5446 5457 5478 5471 5454 5454 5471 5482 5464 5459 5456 5452 5450 5455 5450 5442 5438 5435 5432 5430 5427 5426 5426 5425 5424 5422 5423 5424 5424 5423 5423 5423 5423 5423 5423 5424 5425 5426 5426 5426 5426 5426 5428 5430
5439 5447 5469 5452 5447 5458 5468 5458 5452 5449 5447 5443 5441 5437 5434 5431 5428 5426 5423 5421 5418 5417 5416 5416 5415 5415 5416 5416 5416 5415 5415 5415 5415 5415 5415 5415 5416 5417 5417 5417 5416 5416 5417 5419
5449 5462 5453 5444 5448 5448 5444 5444 5443 5441 5436 5432 5429 5427 5424 5421 5418 5416 5414 5412 5409 5408 5408 5408 5407 5407 5408 5408 5407 5407 5407 5407 5407 5406 5406 5406 5406 5407 5407 5406 5407 5407 5407 5409
5431 5445 5442 5437 5437 5436 5433 5432 5431 5428 5424 5422 5420 5418 5415 5412 5409 5407 5405 5403 5400 5399 5400 5400 5400 5399 5399 5399 5399 5399 5399 5399 5398 5398 5398 5397 5397 5397 5398 5397 5397 5397 5398 5399
5426 5435 5433 5435 5432 5430 5427 5423 5419 5417 5414 5412 5410 5409 5407 5404 5401 5399 5396 5394 5392 5391 5391 5391 5392 5391 5391 5391 5390 5390 5391 5390 5390 5389 5388 5388 5388 5387 5388 5388 5388 5388 5389 5390
5442 5439 5436 5438 5429 5423 5419 5416 5412 5409 5406 5404 5401 5400 5398 5396 5394 5391 5389 5387 5385 5384 5384 5384 5384 5384 5383 5383 5382 5382 5383 5382 5381 5380 5379 5379 5379 5379 5377 5377 5377 5378 5379 5380
5428 5423 5422 5421 5417 5413 5411 5408 5405 5402 5399 5397 5394 5392 5390 5388 5386 5383 5381 5379 5377 5377 5377 5376 5376 5376 5375 5375 5374 5375 5374 5374 5373 5372 5372 5371 5370 5370 5369 5367 5367 5367 5368 5369
5411 5409 5410 5411 5409 5404 5401 5399 5395 5392 5390 5388 5386 5383 5381 5379 5377 5374 5373 5371 5370 5369 5369 5368 5368 5369 5368 5367 5367 5367 5367 5366 5366 5365 5364 5363 5362 5362 5361 5360 5359 5359 5358 5358
5404 5403 5404 5402 5398 5395 5391 5388 5386 5385 5382 5380 5378 5375 5373 5371 5369 5367 5364 5363 5362 5362 5361 5361 5361 5361 5360 5360 5360 5360 5360 5360 5359 5358 5357 5356 5355 5354 5353 5352 5351 5351 5350 5349
5399 5394 5392 5391 5390 5387 5384 5382 5381 5379 5376 5373 5370 5368 5365 5363 5361 5359 5357 5355 5355 5356 5355 5354 5354 5354 5353 5352 5352 5352 5352 5351 5351 5351 5351 5349 5348 5346 5345 5344 5343 5342 5341 5340
5391 5391 5388 5385 5384 5381 5378 5376 5374 5372 5369 5366 5363 5360 5358 5355 5354 5352 5351 5349 5348 5348 5348 5347 5347 5346 5345 5345 5345 5345 5345 5344 5343 5343 5343 5342 5341 5339 5338 5336 5335 5334 5333 5332
5388 5388 5384 5381 5378 5374 5372 5369 5367 5364 5362 5360 5356 5353 5350 5349 5349 5347 5346 5344 5343 5342 5342 5341 5340 5339 5339 5338 5337 5338 5337 5337 5336 5336 5336 5334 5333 5332 5330 5328 5327 5326 5325 5324
5379 5377 5375 5372 5369 5366 5364 5363 5360 5357 5355 5352 5349 5347 5345 5343 5342 5341 5339 5337 5337 5338 5337 5335 5334 5333 5332 5331 5330 5330 5329 5329 5328 5328 5328 5327 5325 5324 5322 5321 5320 5320 5318 5317
5372 5370 5367 5364 5361 5358 5357 5355 5352 5350 5348 5345 5342 5340 5339 5337 5335 5333 5332 5332 5332 5332 5330 5329 5327 5326 5325 5324 5323 5322 5322 5321 5320 5320 5319 5318 5318 5316 5315 5314 5314 5313 5311 5310
5365 5363 5360 5357 5355 5352 5350 5348 5345 5343 5341 5337 5335 5334 5332 5331 5328 5326 5327 5329 5328 5325 5323 5322 5321 5320 5318 5317 5315 5315 5314 5313 5312 5311 5311 5310 5309 5309 5308 5307 5306 5305 5304 5303
5359 5356 5353 5351 5348 5346 5344 5341 5339 5336 5334 5331 5329 5327 5325 5324 5323 5321 5320 5321 5321 5318 5317 5317 5315 5314 5312 5310 5308 5307 5306 5304 5304 5303 5303 5302 5302 5301 5300 5299 5299 5298 5297 5296
5352 5349 5347 5344 5342 5340 5337 5334 5332 5330 5328 5326 5323 5322 5321 5320 5318 5318 5318 5316 5314 5313 5311 5311 5310 5308 5306 5303 5301 5300 5298 5297 5296 5295 5295 5294 5294 5294 5293 5292 5292 5291 5291 5290
5345 5343 5340 5337 5333 5331 5330 5330 5326 5323 5321 5319 5317 5315 5313 5313 5312 5311 5310 5309 5308 5307 5305 5304 5303 5302 5299 5297 5295 5293 5292 5291 5290 5289 5288 5287 5287 5286 5286 5285 5285 5285 5284 5283
5338 5336 5333 5329 5328 5329 5328 5324 5319 5317 5314 5314 5312 5309 5307 5307 5306 5306 5304 5302 5301 5300 5299 5297 5296 5294 5292 5290 5288 5287 5285 5284 5283 5282 5282 5281 5280 5280 5279 5279 5279 5279 5278 5277
5333 5332 5331 5328 5326 5325 5322 5319 5316 5314 5312 5310 5308 5306 5303 5301 5300 5299 5297 5296 5295 5294 5292 5290 5289 5287 5285 5283 5282 5280 5279 5278 5276 5275 5275 5274 5274 5274 5273 5273 5272 5272 5272 5271
5327 5325 5323 5322 5321 5318 5316 5314 5312 5310 5308 5307 5305 5302 5299 5297 5295 5294 5292 5291 5290 5288 5286 5284 5282 5281 5279 5277 5275 5274 5273 5272 5271 5270 5269 5268 5268 5268 5267 5267 5267 5266 5265 5265